TimeCDT,TemperatureF,Dew PointF,Humidity,Sea Level PressureIn,VisibilityMPH,Wind Direction,Wind SpeedMPH,Gust SpeedMPH,PrecipitationIn,Events,Conditions,WindDirDegrees,DateUTC
12:53 AM,37.9,37.0,97,30.24,10.0,NNW,4.6,-,N/A,,Clear,330,2012-10-06 05:53:00
1:53 AM,37.9,37.0,97,30.25,10.0,NW,3.5,-,N/A,,Clear,320,2012-10-06 06:53:00
2:53 AM,37.9,36.0,93,30.25,10.0,NW,4.6,-,N/A,,Clear,320,2012-10-06 07:53:00
3:53 AM,37.9,36.0,93,30.25,10.0,NNW,5.8,-,N/A,,Clear,330,2012-10-06 08:53:00
4:53 AM,37.0,35.1,93,30.26,10.0,NNW,3.5,-,N/A,,Clear,330,2012-10-06 09:53:00
5:53 AM,36.0,34.0,93,30.28,10.0,NW,4.6,-,N/A,,Clear,310,2012-10-06 10:53:00
6:53 AM,37.9,35.1,89,30.28,10.0,NNW,4.6,-,N/A,,Overcast,340,2012-10-06 11:53:00
7:53 AM,37.9,36.0,93,30.28,10.0,Calm,Calm,-,N/A,,Partly Cloudy,0,2012-10-06 12:53:00
8:53 AM,41.0,36.0,82,30.25,10.0,Variable,3.5,-,0.00,Rain,Light Rain,0,2012-10-06 13:53:00
9:53 AM,46.0,37.9,73,30.25,10.0,North,10.4,-,0.00,,Scattered Clouds,10,2012-10-06 14:53:00
10:53 AM,46.0,35.1,66,30.31,10.0,NNW,10.4,-,0.00,,Mostly Cloudy,340,2012-10-06 15:53:00
11:53 AM,43.0,35.1,74,30.30,10.0,NNW,5.8,-,0.00,Rain,Light Rain,340,2012-10-06 16:53:00
12:53 PM,46.0,35.1,66,30.28,10.0,Variable,4.6,-,0.02,,Overcast,0,2012-10-06 17:53:00
1:53 PM,46.0,36.0,68,30.26,10.0,Variable,4.6,-,0.00,,Overcast,0,2012-10-06 18:53:00
2:53 PM,48.0,35.1,61,30.25,10.0,North,9.2,-,N/A,,Overcast,10,2012-10-06 19:53:00
3:53 PM,46.9,33.1,59,30.23,10.0,North,5.8,-,N/A,,Overcast,350,2012-10-06 20:53:00
4:53 PM,46.9,33.1,59,30.22,10.0,North,5.8,-,0.00,Rain,Light Rain,10,2012-10-06 21:53:00
5:53 PM,46.4,33.8,62,30.22,10.0,North,5.8,-,N/A,,Overcast,360,2012-10-06 22:53:00
6:53 PM,41.0,35.1,79,30.25,10.0,North,5.8,-,0.00,Rain,Light Rain,360,2012-10-06 23:53:00
7:53 PM,41.0,35.1,79,30.28,10.0,North,4.6,-,0.01,,Overcast,350,2012-10-07 00:53:00
8:53 PM,39.9,36.0,86,30.28,10.0,NW,4.6,-,0.00,,Overcast,310,2012-10-07 01:53:00
9:53 PM,39.9,37.0,89,30.28,10.0,WNW,4.6,-,0.00,Rain,Light Rain,300,2012-10-07 02:53:00
10:53 PM,39.9,37.0,89,30.28,10.0,NW,4.6,-,0.00,,Overcast,320,2012-10-07 03:53:00
11:53 PM,39.9,36.0,86,30.28,10.0,NW,5.8,-,N/A,,Overcast,320,2012-10-07 04:53:00